Tracking 29892 objects as of 21-Nov-2024
HD Live streaming from Space Station
objects crossing your sky now

FREGAT R/B

Track FREGAT R/B now!


NORAD ID: 52985
Int'l Code: 2022-075B
Perigee: 19,292.9 km
Apogee: 19,676.5 km
Inclination: 64.6 °
Period: 689.6 minutes
Semi major axis: 25855 km
RCS: Unknown
Launch date: July 7, 2022
Source: Commonwealth of Independent States (former USSR) (CIS)
Launch site: PLESETSK MISSILE AND SPACE COMPLEX (PKMTR)

Note: This is a ROCKET BODY
Your satellite tracking list
Your tracking list is empty




NASA's NSSDC Master Catalog

Two Line Element Set (TLE):
1 52985U 22075B   24325.24365012 -.00000060  00000-0  00000-0 0  9991
2 52985  64.6297 335.9715 0074171 119.7946 240.9772  2.08818276 18108
Source of the keplerian elements: AFSPC